TMSAT-1 - Orbit

View from above orbital plane
View from above orbital plane
View from above satellite
View from above satellite

Ground track
Ground track

The orbit data is extracted from the following two-line orbital elements,

1 25396U 98043C   13168.10771017  .00000029  00000-0  30527-4 0  5945
2 25396 098.3846 140.5303 0001368 264.9052 234.8875 14.24024110776193
Epoch (UTC): 17 June 2013 02:35:06
Eccentricity: 0.0001368
inclination: 98.3846°
perigee height: 811 km
apogee height: 813 km
right ascension of ascending node: 140.5303°
argument of perigee: 264.9052°
revolutions per day: 14.24024110
mean anomaly at epoch: 234.8875°
orbit number at epoch: 77619

The dashed part of the orbit path shows where the satellite is in the earth's shadow,  

Developed and maintained by Chris Peat, Heavens-Above GmbH. Please read the updated FAQ before sending e-mail. Imprint. DLR